When you browse on this site, cookies collect data to enhance your experience and personalize the content and advertising you see.
Visit our Privacy Policy to learn more. By continuing to use the site, you agree to this use of cookies and data.
  • en Suisse
  • Liste des pays
  • À 7 jours
  • Température de l'eau
  • Carte météo
  • Widgets météo
  • user-avatar
    Se connecter

    Météo par heure à Nha Trang

    Ce jour, 19 Septembre, Jeudi

    Heure Température Précipitation Vent Pression Humidité
    00:00 +26°C° 0.5 mm 2 m/s 747 mmHg 91%
    01:00 +26°C° 0 mm 2 m/s 746 mmHg 91%
    02:00 +26°C° 0.1 mm 2 m/s 746 mmHg 91%
    03:00 +26°C° 0.1 mm 1 m/s 746 mmHg 90%
    04:00 +26°C° 0.1 mm 1 m/s 746 mmHg 90%
    05:00 +26°C° 0 mm 1 m/s 746 mmHg 89%
    06:00 +27°C° 0 mm 1 m/s 747 mmHg 88%
    07:00 +25°C° 0 mm 0 m/s 747 mmHg 88%
    08:00 +26°C° 0.2 mm 0 m/s 747 mmHg 88%
    09:00 +26°C° 0.2 mm 0 m/s 748 mmHg 87%
    10:00 +26°C° 0.2 mm 0 m/s 748 mmHg 87%
    11:00 +29°C° 0.2 mm 1 m/s 747 mmHg 85%
    12:00 +29°C° 0.2 mm 1 m/s 747 mmHg 82%
    13:00 +29°C° 0.2 mm 1 m/s 746 mmHg 80%
    14:00 +29°C° 1 mm 1 m/s 746 mmHg 82%
    15:00 +29°C° 1 mm 1 m/s 746 mmHg 85%
    16:00 +29°C° 1 mm 1 m/s 746 mmHg 87%
    17:00 +28°C° 1 mm 1 m/s 746 mmHg 88%
    18:00 +28°C° 1 mm 1 m/s 746 mmHg 89%
    19:00 +27°C° 1 mm 1 m/s 747 mmHg 89%
    20:00 +27°C° 0.5 mm 1 m/s 747 mmHg 89%
    21:00 +27°C° 0.5 mm 1 m/s 748 mmHg 90%
    22:00 +27°C° 0.5 mm 1 m/s 748 mmHg 90%
    23:00 +27°C° 0.3 mm 1 m/s 748 mmHg 90%

    Demain, 20 Septembre, Vendredi

    Heure Température Précipitation Vent Pression Humidité
    00:00 +26°C° 0.3 mm 1 m/s 747 mmHg 89%
    01:00 +26°C° 0.3 mm 2 m/s 747 mmHg 89%
    02:00 +26°C° 0 mm 1 m/s 746 mmHg 88%
    03:00 +26°C° 0 mm 1 m/s 746 mmHg 87%
    04:00 +26°C° 0 mm 1 m/s 746 mmHg 87%
    05:00 +26°C° 0 mm 1 m/s 746 mmHg 85%
    06:00 +27°C° 0 mm 1 m/s 747 mmHg 83%
    07:00 +25°C° 0 mm 0 m/s 747 mmHg 82%
    08:00 +28°C° 0 mm 1 m/s 747 mmHg 77%
    09:00 +30°C° 0 mm 1 m/s 747 mmHg 71%
    10:00 +31°C° 0 mm 1 m/s 747 mmHg 66%
    11:00 +31°C° 0.5 mm 1 m/s 747 mmHg 69%
    12:00 +31°C° 0.5 mm 1 m/s 746 mmHg 73%
    13:00 +31°C° 0.5 mm 2 m/s 745 mmHg 76%
    14:00 +30°C° 1.4 mm 2 m/s 745 mmHg 80%
    15:00 +29°C° 1.4 mm 1 m/s 745 mmHg 83%
    16:00 +29°C° 1.4 mm 1 m/s 745 mmHg 87%
    17:00 +28°C° 1.4 mm 1 m/s 745 mmHg 89%
    18:00 +27°C° 1.4 mm 2 m/s 745 mmHg 91%
    19:00 +27°C° 1.4 mm 2 m/s 746 mmHg 93%
    20:00 +26°C° 0.9 mm 2 m/s 746 mmHg 93%
    21:00 +26°C° 0.9 mm 2 m/s 747 mmHg 94%
    22:00 +26°C° 0.9 mm 2 m/s 747 mmHg 94%
    23:00 +26°C° 2 mm 1 m/s 747 mmHg 95%

    Après-demain, 21 Septembre, Samedi

    Heure Température Précipitation Vent Pression Humidité
    00:00 +26°C° 2 mm 1 m/s 746 mmHg 96%
    01:00 +26°C° 2 mm 1 m/s 746 mmHg 96%
    02:00 +26°C° 2.5 mm 1 m/s 746 mmHg 96%
    03:00 +25°C° 2.5 mm 1 m/s 745 mmHg 96%
    04:00 +25°C° 2.5 mm 1 m/s 745 mmHg 96%
    05:00 +25°C° 3.1 mm 1 m/s 745 mmHg 96%
    06:00 +25°C° 3.1 mm 1 m/s 746 mmHg 96%
    07:00 +25°C° 3.1 mm 1 m/s 746 mmHg 96%
    08:00 +26°C° 1.8 mm 1 m/s 746 mmHg 95%
    09:00 +27°C° 1.8 mm 1 m/s 747 mmHg 93%
    10:00 +27°C° 1.8 mm 1 m/s 747 mmHg 92%
    11:00 +27°C° 2.5 mm 1 m/s 746 mmHg 93%
    12:00 +27°C° 2.5 mm 1 m/s 746 mmHg 94%
    13:00 +26°C° 2.5 mm 2 m/s 745 mmHg 94%
    14:00 +26°C° 3.1 mm 2 m/s 745 mmHg 94%
    15:00 +26°C° 3.1 mm 2 m/s 745 mmHg 94%
    16:00 +26°C° 3.1 mm 2 m/s 745 mmHg 94%
    17:00 +26°C° 0.6 mm 2 m/s 746 mmHg 93%
    18:00 +26°C° 0.6 mm 1 m/s 746 mmHg 92%
    19:00 +26°C° 0.6 mm 1 m/s 747 mmHg 91%
    20:00 +26°C° 0 mm 1 m/s 747 mmHg 91%
    21:00 +25°C° 0 mm 1 m/s 748 mmHg 91%
    22:00 +25°C° 0 mm 1 m/s 748 mmHg 90%
    23:00 +25°C° 0.1 mm 1 m/s 748 mmHg 90%

    22 Septembre, Dimanche

    Heure Température Précipitation Vent Pression Humidité
    00:00 +25°C° 0.1 mm 1 m/s 748 mmHg 90%
    01:00 +25°C° 0.1 mm 1 m/s 748 mmHg 90%
    02:00 +25°C° 0.3 mm 1 m/s 747 mmHg 90%
    03:00 +25°C° 0.3 mm 1 m/s 747 mmHg 90%
    04:00 +25°C° 0.3 mm 1 m/s 747 mmHg 90%
    05:00 +25°C° 0.2 mm 1 m/s 748 mmHg 90%
    06:00 +26°C° 0.2 mm 1 m/s 748 mmHg 89%
    07:00 +26°C° 0.2 mm 1 m/s 749 mmHg 89%
    08:00 +27°C° 0.7 mm 1 m/s 749 mmHg 86%
    09:00 +28°C° 0.7 mm 1 m/s 749 mmHg 83%
    10:00 +29°C° 0.7 mm 1 m/s 749 mmHg 81%
    11:00 +29°C° 0.6 mm 2 m/s 748 mmHg 80%
    12:00 +29°C° 0.6 mm 3 m/s 748 mmHg 79%
    13:00 +30°C° 0.6 mm 3 m/s 747 mmHg 78%
    14:00 +29°C° 0.6 mm 3 m/s 747 mmHg 79%
    15:00 +29°C° 0.6 mm 4 m/s 747 mmHg 80%
    16:00 +29°C° 0.6 mm 4 m/s 747 mmHg 81%
    17:00 +28°C° 0.2 mm 4 m/s 747 mmHg 83%
    18:00 +27°C° 0.2 mm 3 m/s 748 mmHg 84%
    19:00 +27°C° 0.2 mm 3 m/s 749 mmHg 85%
    20:00 +26°C° 0.1 mm 3 m/s 749 mmHg 85%
    21:00 +26°C° 0.1 mm 2 m/s 750 mmHg 86%
    22:00 +26°C° 0.1 mm 2 m/s 750 mmHg 86%
    23:00 +26°C° 0 mm 2 m/s 750 mmHg 87%

    23 Septembre, Lundi

    Heure Température Précipitation Vent Pression Humidité
    00:00 +25°C° 0 mm 2 m/s 749 mmHg 88%
    01:00 +25°C° 0 mm 2 m/s 749 mmHg 89%
    02:00 +25°C° 0 mm 2 m/s 749 mmHg 89%
    03:00 +24°C° 0 mm 2 m/s 748 mmHg 88%
    04:00 +24°C° 0 mm 2 m/s 748 mmHg 88%
    05:00 +25°C° 0 mm 2 m/s 749 mmHg 86%
    06:00 +25°C° 0 mm 2 m/s 749 mmHg 84%
    07:00 +25°C° 0 mm 2 m/s 750 mmHg 82%
    08:00 +27°C° 0 mm 2 m/s 750 mmHg 76%
    09:00 +29°C° 0 mm 1 m/s 750 mmHg 69%
    10:00 +31°C° 0 mm 1 m/s 750 mmHg 62%
    11:00 +31°C° 0.1 mm 2 m/s 749 mmHg 65%
    12:00 +31°C° 0.1 mm 3 m/s 748 mmHg 67%
    13:00 +32°C° 0.1 mm 4 m/s 748 mmHg 70%
    14:00 +30°C° 0.4 mm 4 m/s 748 mmHg 74%
    15:00 +30°C° 0.4 mm 3 m/s 747 mmHg 78%
    16:00 +29°C° 0.4 mm 3 m/s 747 mmHg 82%
    17:00 +28°C° 0.1 mm 3 m/s 748 mmHg 85%
    18:00 +27°C° 0.1 mm 3 m/s 748 mmHg 87%
    19:00 +27°C° 0.1 mm 3 m/s 749 mmHg 89%
    20:00 +26°C° 0.3 mm 3 m/s 749 mmHg 89%
    21:00 +26°C° 0.3 mm 3 m/s 750 mmHg 90%
    22:00 +26°C° 0.3 mm 3 m/s 750 mmHg 90%
    23:00 +26°C° 0.2 mm 3 m/s 749 mmHg 90%

    24 Septembre, Mardi

    Heure Température Précipitation Vent Pression Humidité
    00:00 +26°C° 0.2 mm 3 m/s 749 mmHg 90%
    01:00 +25°C° 0.2 mm 3 m/s 749 mmHg 90%
    02:00 +25°C° 0 mm 2 m/s 748 mmHg 91%
    03:00 +25°C° 0 mm 2 m/s 748 mmHg 91%
    04:00 +25°C° 0 mm 2 m/s 748 mmHg 92%
    05:00 +25°C° 0 mm 2 m/s 749 mmHg 91%
    06:00 +26°C° 0 mm 2 m/s 749 mmHg 90%
    07:00 +26°C° 0 mm 2 m/s 749 mmHg 90%
    08:00 +28°C° 0.1 mm 2 m/s 749 mmHg 83%
    09:00 +29°C° 0.1 mm 3 m/s 749 mmHg 77%
    10:00 +31°C° 0.1 mm 3 m/s 750 mmHg 70%
    11:00 +31°C° 0 mm 3 m/s 749 mmHg 68%
    12:00 +32°C° 0 mm 4 m/s 748 mmHg 66%
    13:00 +33°C° 0 mm 4 m/s 748 mmHg 64%
    14:00 +32°C° 0 mm 4 m/s 747 mmHg 68%
    15:00 +32°C° 0 mm 4 m/s 747 mmHg 71%
    16:00 +30°C° 0 mm 4 m/s 747 mmHg 75%
    17:00 +29°C° 0 mm 4 m/s 747 mmHg 79%
    18:00 +28°C° 0 mm 3 m/s 748 mmHg 84%
    19:00 +27°C° 0 mm 3 m/s 748 mmHg 89%
    20:00 +27°C° 0 mm 3 m/s 749 mmHg 90%
    21:00 +26°C° 0 mm 3 m/s 749 mmHg 90%
    22:00 +26°C° 0 mm 2 m/s 750 mmHg 91%
    23:00 +26°C° 0.1 mm 2 m/s 749 mmHg 91%
    Voir plus